Погода в Листвянке

Россия / Алтайский край     52°45′26″N   83°58′36″E
темп.,
°C
ветер,
м/с
пор.,
м/с
влажн.,
%
обл.,
%
осадки,
мм/ч
давл.,
гПа
погр.,
м
18 октября, пн
пн1801:00+4юз22756 0.0 102620
04:00+3юз22775 0.0 102716
07:00+2юз22785 0.0 102715
10:00+5юз136652 0.0 1028164
13:00+9зюз234688 0.0 1027661
16:00+10з2243100 0.0 1027749
19:00+6юз11575 0.0 102810
22:00+4ю11630 0.0 102810
19 октября, вт
вт1901:00+3юв11694 0.0 102810
04:00+3юв11725 0.0 102810
07:00+2вюв11755 0.0 102810
10:00+5в12665 0.0 1028114
13:00+10в12508 0.0 1027478
16:00+12всв224560 0.0 1025665
19:00+7в226425 0.0 102526
22:00+6в23745 0.0 102448
20 октября, ср
ср2001:00+4в22785 0.0 102421
04:00+4вюв11845 0.0 102310
07:00+3юв228749 0.0 102314
10:00+6юв237024 0.0 1022109
13:00+12юв224273 0.0 1020325
16:00+14юв233551 0.0 1019381
19:00+9юв22545 0.0 101919
22:00+7ююв22555 0.0 101924
21 октября, чт
чт2101:00+6юв225664 0.0 101821
04:00+5юв225846 0.0 101833
07:00+5юв245666 0.0 101858
10:00+8ююв264553 0.0 1017165
13:00+14ююв242859 0.0 1016299
16:00+16ююв252982 0.0 1015493
19:00+11ююв2243100 0.0 101535
22:00+10ююв2345100 0.0 101542
22 октября, пт
пт2201:00+9ююв224763 0.0 101619
04:00+8юв224955 0.0 101623
07:00+7юв2352100 0.0 101656
10:00+10ю2644100 0.0 1017138
13:00+13з3643100 0.0 1018551
16:00+13зюз3963100 0.0 1018792
19:00+10з1276100 0.0 101966
22:00+9зюз1385100 0.0 1019143